AUA18C LOWW-EDDM

Flight info

Callsign AUA18C
Flight time 0h 38m
Altitude 26000
Route SOVIL DCT SITNI DCT BAGSI DCT MATIG DCT AMADI Q113 NAPSA NAPSA1B
Aircraft A20N/M-SDE2E3FGHIRWXY/LB1

Departure

Time 2026-05-06 18:06
Airport Vienna International Airport (LOWW)

Arrival

Time 2026-05-06 18:45
Airport Munich Airport (EDDM)
Time Latitude Longitude Altitude Speed Heading
2026-05-06 17:20 48.12060 16.56819 607 ft 0 kts 26°
2026-05-06 17:54 48.12059 16.56818 607 ft 1 kts 27°
2026-05-06 17:54 48.12045 16.56808 607 ft 2 kts 26°
2026-05-06 17:55 48.12033 16.56799 607 ft 1 kts 26°
2026-05-06 17:55 48.12026 16.56790 607 ft 2 kts 70°
2026-05-06 17:55 48.12022 16.56775 607 ft 1 kts 63°
2026-05-06 17:55 48.12022 16.56766 607 ft 0 kts 121°
2026-05-06 17:56 48.12026 16.56757 607 ft 0 kts 117°
2026-05-06 17:59 48.12024 16.56762 607 ft 1 kts 117°
2026-05-06 17:59 48.12013 16.56796 607 ft 6 kts 116°
2026-05-06 17:59 48.11989 16.56870 607 ft 8 kts 116°
2026-05-06 18:00 48.11970 16.56931 607 ft 5 kts 116°
2026-05-06 18:00 48.11954 16.56980 607 ft 4 kts 117°
2026-05-06 18:00 48.11937 16.57031 607 ft 7 kts 117°
2026-05-06 18:00 48.11912 16.57101 607 ft 8 kts 117°
2026-05-06 18:01 48.11872 16.57186 607 ft 10 kts 135°
2026-05-06 18:01 48.11850 16.57291 607 ft 9 kts 58°
2026-05-06 18:01 48.11910 16.57302 607 ft 10 kts 345°
2026-05-06 18:01 48.11974 16.57310 607 ft 5 kts 37°
2026-05-06 18:02 48.11987 16.57334 607 ft 5 kts 61°
2026-05-06 18:02 48.12005 16.57421 607 ft 10 kts 77°
2026-05-06 18:02 48.12009 16.57512 607 ft 7 kts 100°
2026-05-06 18:02 48.11998 16.57573 607 ft 0 kts 105°
2026-05-06 18:05 48.11984 16.57647 607 ft 15 kts 107°
2026-05-06 18:05 48.11934 16.57818 607 ft 22 kts 141°
2026-05-06 18:05 48.11572 16.57989 608 ft 91 kts 165°
2026-05-06 18:05 48.10741 16.58340 609 ft 153 kts 165°
2026-05-06 18:06 48.09637 16.58822 1065 ft 169 kts 165°
2026-05-06 18:06 48.08534 16.59312 1920 ft 167 kts 167°
2026-05-06 18:06 48.07447 16.59757 2765 ft 164 kts 169°
2026-05-06 18:06 48.06378 16.60126 3468 ft 161 kts 180°
2026-05-06 18:07 48.05312 16.59581 3886 ft 174 kts 217°
2026-05-06 18:07 48.04443 16.58234 4386 ft 189 kts 232°
2026-05-06 18:07 48.03706 16.56549 4943 ft 200 kts 234°
2026-05-06 18:07 48.02922 16.54806 5550 ft 208 kts 233°
2026-05-06 18:08 48.02022 16.53022 6062 ft 224 kts 231°
2026-05-06 18:08 48.01041 16.51146 6662 ft 237 kts 235°
2026-05-06 18:08 48.00254 16.48943 7306 ft 249 kts 250°
2026-05-06 18:08 48.00080 16.46334 7888 ft 268 kts 272°
2026-05-06 18:09 48.00324 16.43559 8650 ft 274 kts 275°
2026-05-06 18:09 48.00547 16.40736 9507 ft 275 kts 272°
2026-05-06 18:09 48.00719 16.37897 10402 ft 275 kts 272°
2026-05-06 18:09 48.00862 16.35064 11124 ft 280 kts 271°
2026-05-06 18:10 48.00997 16.32077 11524 ft 298 kts 270°
2026-05-06 18:10 48.01136 16.28905 11881 ft 315 kts 270°
2026-05-06 18:10 48.01279 16.25550 12203 ft 333 kts 270°
2026-05-06 18:10 48.01430 16.22006 12508 ft 351 kts 270°
2026-05-06 18:11 48.01582 16.18362 12963 ft 362 kts 270°
2026-05-06 18:11 48.01741 16.14613 13653 ft 366 kts 270°
2026-05-06 18:11 48.01898 16.10829 14346 ft 369 kts 270°
2026-05-06 18:11 48.02055 16.07006 15021 ft 372 kts 270°
2026-05-06 18:12 48.02213 16.03113 15695 ft 375 kts 270°
2026-05-06 18:12 48.02369 15.99205 16360 ft 378 kts 270°
2026-05-06 18:12 48.02525 15.95314 17007 ft 381 kts 270°
2026-05-06 18:12 48.02679 15.91355 17601 ft 384 kts 270°
2026-05-06 18:13 48.02834 15.87370 18201 ft 387 kts 270°
2026-05-06 18:13 48.02987 15.83355 18772 ft 390 kts 270°
2026-05-06 18:13 48.03139 15.79363 19348 ft 392 kts 270°
2026-05-06 18:13 48.03291 15.75272 19908 ft 395 kts 270°
2026-05-06 18:14 48.03444 15.71208 20495 ft 397 kts 270°
2026-05-06 18:14 48.03596 15.67077 21045 ft 400 kts 270°
2026-05-06 18:14 48.03749 15.62904 21578 ft 403 kts 270°
2026-05-06 18:14 48.03898 15.58773 22093 ft 406 kts 270°
2026-05-06 18:15 48.04051 15.54553 22627 ft 408 kts 270°
2026-05-06 18:15 48.04200 15.50288 23130 ft 411 kts 270°
2026-05-06 18:15 48.04348 15.46046 23633 ft 413 kts 270°
2026-05-06 18:15 48.04498 15.41760 24120 ft 415 kts 270°
2026-05-06 18:16 48.04646 15.37457 24602 ft 417 kts 269°
2026-05-06 18:16 48.04744 15.33147 25073 ft 418 kts 268°
2026-05-06 18:16 48.04813 15.28832 25521 ft 420 kts 267°
2026-05-06 18:16 48.04873 15.24427 25738 ft 422 kts 268°
2026-05-06 18:17 48.04936 15.20057 25740 ft 421 kts 267°
2026-05-06 18:17 48.04997 15.15747 25736 ft 420 kts 267°
2026-05-06 18:17 48.05058 15.11397 25734 ft 420 kts 267°
2026-05-06 18:17 48.05120 15.07053 25729 ft 419 kts 267°
2026-05-06 18:18 48.05180 15.02681 25726 ft 420 kts 267°
2026-05-06 18:18 48.05238 14.98314 25728 ft 421 kts 267°
2026-05-06 18:18 48.05294 14.94001 25729 ft 420 kts 267°
2026-05-06 18:18 48.05351 14.89634 25729 ft 420 kts 267°
2026-05-06 18:19 48.05404 14.85277 25726 ft 420 kts 267°
2026-05-06 18:19 48.05452 14.80939 25723 ft 420 kts 267°
2026-05-06 18:19 48.05491 14.76570 25722 ft 420 kts 267°
2026-05-06 18:19 48.05528 14.72202 25720 ft 419 kts 267°
2026-05-06 18:20 48.05560 14.67897 25721 ft 419 kts 267°
2026-05-06 18:20 48.05592 14.63544 25718 ft 419 kts 267°
2026-05-06 18:20 48.05622 14.59196 25718 ft 419 kts 267°
2026-05-06 18:20 48.05650 14.54889 25718 ft 418 kts 267°
2026-05-06 18:21 48.05678 14.50525 25713 ft 419 kts 267°
2026-05-06 18:21 48.05703 14.46185 25711 ft 419 kts 267°
2026-05-06 18:21 48.05726 14.41829 25711 ft 419 kts 267°
2026-05-06 18:21 48.05746 14.37513 25718 ft 419 kts 267°
2026-05-06 18:22 48.05767 14.33197 25712 ft 418 kts 266°
2026-05-06 18:22 48.05785 14.28853 25710 ft 417 kts 266°
2026-05-06 18:22 48.05803 14.24538 25588 ft 418 kts 266°
2026-05-06 18:22 48.05822 14.20218 25324 ft 415 kts 266°
2026-05-06 18:23 48.05837 14.15906 25054 ft 414 kts 266°
2026-05-06 18:23 48.05851 14.11643 24799 ft 414 kts 266°
2026-05-06 18:23 48.05862 14.07328 24529 ft 412 kts 266°
2026-05-06 18:23 48.05873 14.03090 24266 ft 410 kts 266°
2026-05-06 18:24 48.05880 13.98818 24006 ft 410 kts 266°
2026-05-06 18:24 48.05886 13.94580 23751 ft 409 kts 266°
2026-05-06 18:24 48.05891 13.90337 23484 ft 408 kts 266°
2026-05-06 18:24 48.05893 13.86101 23218 ft 407 kts 266°
2026-05-06 18:25 48.05894 13.81938 22959 ft 406 kts 266°
2026-05-06 18:25 48.05893 13.77734 22702 ft 403 kts 266°
2026-05-06 18:25 48.05892 13.73548 22441 ft 401 kts 266°
2026-05-06 18:25 48.05890 13.69432 22182 ft 400 kts 266°
2026-05-06 18:26 48.05883 13.65237 21914 ft 399 kts 266°
2026-05-06 18:26 48.05876 13.61159 21659 ft 397 kts 266°
2026-05-06 18:26 48.05868 13.57029 21362 ft 395 kts 267°
2026-05-06 18:26 48.05947 13.52962 21012 ft 395 kts 270°
2026-05-06 18:27 48.06151 13.48862 20569 ft 393 kts 271°
2026-05-06 18:27 48.06369 13.44860 20089 ft 390 kts 271°
2026-05-06 18:27 48.06589 13.40838 19558 ft 387 kts 271°
2026-05-06 18:27 48.06804 13.36841 19036 ft 383 kts 271°
2026-05-06 18:28 48.07013 13.32937 18520 ft 380 kts 271°
2026-05-06 18:28 48.07220 13.29016 18004 ft 376 kts 271°
2026-05-06 18:28 48.07424 13.25125 17469 ft 374 kts 270°
2026-05-06 18:28 48.07626 13.21244 16923 ft 372 kts 270°
2026-05-06 18:29 48.07824 13.17449 16415 ft 369 kts 270°
2026-05-06 18:29 48.08019 13.13649 15893 ft 368 kts 271°
2026-05-06 18:29 48.08215 13.09821 15346 ft 366 kts 270°
2026-05-06 18:29 48.08406 13.06047 14801 ft 364 kts 270°
2026-05-06 18:30 48.08595 13.02295 14293 ft 362 kts 270°
2026-05-06 18:30 48.08782 12.98566 13776 ft 361 kts 270°
2026-05-06 18:30 48.08961 12.94865 13246 ft 359 kts 270°
2026-05-06 18:30 48.09152 12.91144 12724 ft 361 kts 271°
2026-05-06 18:31 48.09627 12.87466 12167 ft 365 kts 286°
2026-05-06 18:31 48.10812 12.84128 11549 ft 370 kts 303°
2026-05-06 18:31 48.12378 12.81086 11001 ft 369 kts 304°
2026-05-06 18:31 48.13936 12.78033 10463 ft 366 kts 304°
2026-05-06 18:32 48.15474 12.74999 9979 ft 362 kts 305°
2026-05-06 18:32 48.16999 12.72026 9809 ft 355 kts 305°
2026-05-06 18:32 48.18439 12.69186 9740 ft 338 kts 305°
2026-05-06 18:32 48.19835 12.66428 9713 ft 322 kts 304°
2026-05-06 18:33 48.21152 12.63772 9677 ft 318 kts 304°
2026-05-06 18:33 48.22455 12.61079 9668 ft 318 kts 303°
2026-05-06 18:33 48.23746 12.58409 9492 ft 317 kts 304°
2026-05-06 18:33 48.25060 12.55756 9221 ft 314 kts 304°
2026-05-06 18:34 48.26377 12.53139 8803 ft 308 kts 305°
2026-05-06 18:34 48.27596 12.50671 8379 ft 288 kts 304°
2026-05-06 18:34 48.28728 12.48248 7965 ft 282 kts 302°
2026-05-06 18:34 48.29832 12.45827 7599 ft 278 kts 303°
2026-05-06 18:35 48.30930 12.43519 7124 ft 264 kts 305°
2026-05-06 18:35 48.32009 12.41334 6637 ft 264 kts 306°
2026-05-06 18:35 48.33109 12.39122 6245 ft 260 kts 305°
2026-05-06 18:35 48.34146 12.36964 5953 ft 255 kts 304°
2026-05-06 18:36 48.35141 12.34829 5635 ft 239 kts 303°
2026-05-06 18:36 48.36045 12.32833 5200 ft 228 kts 302°
2026-05-06 18:36 48.36887 12.30887 5038 ft 217 kts 300°
2026-05-06 18:36 48.37552 12.28893 4875 ft 208 kts 294°
2026-05-06 18:37 48.38152 12.26947 4695 ft 202 kts 293°
2026-05-06 18:37 48.38723 12.25039 4447 ft 199 kts 294°
2026-05-06 18:37 48.39247 12.23118 4174 ft 198 kts 285°
2026-05-06 18:37 48.39381 12.21074 4050 ft 195 kts 271°
2026-05-06 18:38 48.39358 12.19094 4040 ft 186 kts 269°
2026-05-06 18:38 48.39309 12.17191 3961 ft 179 kts 270°
2026-05-06 18:38 48.39251 12.15346 3844 ft 177 kts 265°
2026-05-06 18:38 48.39070 12.13545 3889 ft 165 kts 265°
2026-05-06 18:39 48.38936 12.11847 3977 ft 166 kts 266°
2026-05-06 18:39 48.38826 12.10088 4003 ft 169 kts 268°
2026-05-06 18:39 48.38734 12.08309 4021 ft 174 kts 268°
2026-05-06 18:40 48.38516 12.04673 4065 ft 165 kts 266°
2026-05-06 18:40 48.38367 12.03031 3964 ft 152 kts 264°
2026-05-06 18:40 48.38206 12.01541 3817 ft 136 kts 263°
2026-05-06 18:40 48.38075 12.00160 3645 ft 133 kts 266°
2026-05-06 18:41 48.37963 11.98784 3529 ft 130 kts 266°
2026-05-06 18:41 48.37854 11.97458 3371 ft 128 kts 266°
2026-05-06 18:41 48.37745 11.96122 3226 ft 127 kts 268°
2026-05-06 18:41 48.37671 11.94807 3112 ft 127 kts 268°
2026-05-06 18:42 48.37599 11.93483 2977 ft 128 kts 266°
2026-05-06 18:42 48.37483 11.92142 2804 ft 128 kts 266°
2026-05-06 18:42 48.37380 11.90814 2594 ft 129 kts 265°
2026-05-06 18:42 48.37260 11.89478 2427 ft 131 kts 265°
2026-05-06 18:43 48.37158 11.88124 2283 ft 131 kts 263°
2026-05-06 18:43 48.37049 11.86757 2103 ft 132 kts 264°
2026-05-06 18:43 48.36945 11.85364 1936 ft 135 kts 263°
2026-05-06 18:43 48.36826 11.83959 1739 ft 137 kts 264°
2026-05-06 18:44 48.36721 11.82549 1554 ft 138 kts 264°
2026-05-06 18:44 48.36610 11.81126 1458 ft 128 kts 265°
2026-05-06 18:44 48.36529 11.80025 1463 ft 82 kts 263°
2026-05-06 18:44 48.36469 11.79278 1466 ft 65 kts 261°
2026-05-06 18:45 48.36355 11.78812 1470 ft 39 kts 235°
2026-05-06 18:45 48.36236 11.78575 1471 ft 18 kts 233°
2026-05-06 18:45 48.36195 11.78505 1472 ft 8 kts 215°
2026-05-06 18:45 48.36136 11.78478 1472 ft 9 kts 181°
2026-05-06 18:46 48.36049 11.78506 1473 ft 15 kts 137°
2026-05-06 18:46 48.36044 11.78671 1472 ft 17 kts 83°
2026-05-06 18:46 48.36057 11.78852 1471 ft 17 kts 85°
2026-05-06 18:46 48.36067 11.79042 1471 ft 18 kts 84°
2026-05-06 18:47 48.36085 11.79218 1469 ft 10 kts 83°
2026-05-06 18:47 48.36065 11.79313 1469 ft 8 kts 149°
2026-05-06 18:47 48.36013 11.79331 1470 ft 8 kts 173°
2026-05-06 18:47 48.35953 11.79342 1470 ft 9 kts 168°
2026-05-06 18:48 48.35885 11.79376 1470 ft 10 kts 166°
2026-05-06 18:48 48.35818 11.79398 1471 ft 10 kts 158°
2026-05-06 18:48 48.35791 11.79507 1470 ft 12 kts 84°
2026-05-06 18:48 48.35803 11.79659 1469 ft 16 kts 83°
2026-05-06 18:49 48.35815 11.79828 1468 ft 16 kts 83°
2026-05-06 18:49 48.35826 11.79985 1468 ft 14 kts 94°
2026-05-06 18:49 48.35759 11.80069 1468 ft 13 kts 173°
2026-05-06 18:49 48.35672 11.80092 1469 ft 12 kts 168°
2026-05-06 18:50 48.35606 11.80101 1469 ft 4 kts 204°
2026-05-06 18:50 48.35591 11.80055 1470 ft 5 kts 259°
2026-05-06 18:50 48.35588 11.80008 1470 ft 1 kts 264°
2026-05-06 18:50 48.35587 11.79995 1470 ft 0 kts 264°